DW9082 Weather Reports


Display with metric or nautical units.
time (UTC)temp
F
wind
direction
speed
MPH
gust
MPH
rain 1hr
in
rain 24hr
in
rain mn
in
humidity
%
barometer
mb
20260505021531 61 156 2.0 8.0 0.00 0.00 0.00 67 1011.4
20260505020014 61 184 2.0 9.0 0.00 0.00 0.00 64 1011.4
20260505014551 62 165 3.0 7.0 0.00 0.00 0.00 62 1011.5
20260505013008 62 132 1.0 6.0 0.00 0.00 0.00 58 1011.3
20260505011538 63 129 3.0 7.0 0.00 0.00 0.00 55 1011.1
20260505010039 63 194 2.0 7.0 0.00 0.00 0.00 54 1011.0
20260505004552 64 136 2.0 7.0 0.00 0.00 0.00 52 1010.9
20260505003046 64 198 2.0 6.0 0.00 0.00 0.00 51 1010.8
20260505001513 65 205 1.0 6.0 0.00 0.00 0.00 49 1010.7
20260505000057 66 184 1.0 6.0 0.00 0.00 0.00 47 1010.5
20260504234512 68 166 2.0 4.0 0.00 0.00 0.00 44 1010.5
20260504233050 70 181 1.0 6.0 0.00 0.00 0.00 41 1010.4
20260504231517 71 239 0.0 4.0 0.00 0.00 0.00 40 1010.3
20260504230046 71 200 1.0 14.0 0.00 0.00 0.00 39 1010.4
20260504224516 71 193 4.0 11.0 0.00 0.00 0.00 38 1010.4
20260504223059 71 219 3.0 13.0 0.00 0.00 0.00 38 1010.3
20260504221510 72 240 5.0 10.0 0.00 0.00 0.00 37 1010.4
20260504220042 72 255 4.0 14.0 0.00 0.00 0.00 37 1010.5
20260504214534 72 200 7.0 16.0 0.00 0.00 0.00 37 1010.5
20260504213032 72 175 4.0 12.0 0.00 0.00 0.00 37 1010.5
20260504211529 72 225 8.0 15.0 0.00 0.00 0.00 36 1010.4
20260504210042 73 262 4.0 14.0 0.00 0.00 0.00 36 1010.4
20260504204510 72 271 7.0 15.0 0.00 0.00 0.00 36 1010.5
20260504203043 73 123 5.0 14.0 0.00 0.00 0.00 36 1010.5
20260504201530 72 229 3.0 15.0 0.00 0.00 0.00 35 1010.6
20260504200018 72 249 5.0 14.0 0.00 0.00 0.00 34 1010.7
20260504194559 72 226 5.0 18.0 0.00 0.00 0.00 33 1010.8
20260504193053 72 197 6.0 15.0 0.00 0.00 0.00 35 1010.9
20260504191529 72 224 6.0 17.0 0.00 0.00 0.00 35 1011.2
20260504190108 71 139 5.0 12.0 0.00 0.00 0.00 35 1011.4
20260504184546 71 204 8.0 14.0 0.00 0.00 0.00 35 1011.7
20260504183053 70 208 6.0 16.0 0.00 0.00 0.00 35 1011.9
20260504181538 71 240 4.0 10.0 0.00 0.00 0.00 34 1012.2
20260504180015 70 207 5.0 17.0 0.00 0.00 0.00 37 1012.5
20260504174536 69 302 2.0 19.0 0.00 0.00 0.00 37 1012.6
20260504173003 70 174 4.0 12.0 0.00 0.00 0.00 36 1012.7
20260504171523 69 253 4.0 10.0 0.00 0.00 0.00 38 1012.9
20260504081539 46 224 0.0 3.0 0.00 0.00 0.00 73 1015.8
20260504050019 46 207 1.0 3.0 0.00 0.00 0.00 68 1015.4
20260504044546 46 218 0.0 3.0 0.00 0.00 0.00 68 1015.4
20260504043031 46 232 0.0 3.0 0.00 0.00 0.00 67 1015.2
20260504041542 46 205 0.0 3.0 0.00 0.00 0.00 66 1015.1
20260504040039 47 174 0.0 4.0 0.00 0.00 0.00 64 1014.9
20260504034548 47 203 1.0 4.0 0.00 0.00 0.00 63 1014.8
20260504033022 47 170 1.0 4.0 0.00 0.00 0.00 62 1014.8
20260504031600 47 171 1.0 3.0 0.00 0.00 0.00 62 1014.7
20260504030041 47 195 1.0 3.0 0.00 0.00 0.00 60 1014.7
20260504024514 47 209 0.0 2.0 0.00 0.00 0.00 59 1014.8
20260504023036 48 214 1.0 4.0 0.00 0.00 0.00 58 1014.8